Simultaneous Nadir Overpasses (SNOs) Predictions

Prediction of SNOs between NOAA-20 and METOP-C Satellite Orbit:

Table of predicted SNOs for the next 14.0 days since TLE Epoch: 2/8/2019
Index Date (NOAA-20) Time (NOAA-20) Lat,Lon (NOAA-20) SZA (NOAA-20 ) Date (METOP-C) Time (METOP-C) Lat,Lon (METOP-C) SZA (METOP-C ) Distance(km) Time Diff (sec)
1 02/10/2019 07:05:25 -73.53,-116.26 91.71 02/10/2019 07:06:31 -73.45,-113.23 91.99 96.17 66
2 02/10/2019 07:56:06 73.29, 51.61 88.01 02/10/2019 07:57:14 73.24, 53.66 87.83 65.85 68
3 02/10/2019 08:46:49 -73.23,-140.96 92.07 02/10/2019 08:47:58 -73.18,-139.17 92.25 57.99 69
4 02/10/2019 09:37:30 72.99, 26.89 87.65 02/10/2019 09:38:42 72.92, 27.62 87.53 25.04 72
5 02/10/2019 10:28:13 -72.94,-165.69 92.42 02/10/2019 10:29:26 -72.86,-165.20 92.55 18.39 73
6 02/10/2019 11:18:56 72.79, 1.93 87.41 02/10/2019 11:20:06 72.80, 2.03 87.40 3.64 70
7 02/10/2019 12:09:40 -72.79, 169.25 92.61 02/10/2019 12:10:49 -72.79, 169.32 92.63 2.29 69
8 02/10/2019 13:00:26 72.79, -23.45 87.39 02/10/2019 13:01:28 72.79, -23.35 87.36 3.34 62
9 02/10/2019 13:51:10 -72.79, 143.87 92.63 02/10/2019 13:52:11 -72.77, 143.94 92.67 3.37 61
10 02/10/2019 14:41:55 72.74, -48.72 87.31 02/10/2019 14:42:50 72.77, -48.72 87.32 2.71 55
11 02/10/2019 15:32:39 -72.74, 118.59 92.70 02/10/2019 15:33:33 -72.75, 118.56 92.71 1.34 54
12 02/10/2019 16:23:25 72.75, -74.10 87.29 02/10/2019 16:24:12 72.75, -74.10 87.28 0.37 47
13 02/10/2019 17:14:09 -72.75, 93.21 92.72 02/10/2019 17:14:55 -72.73, 93.19 92.75 1.68 46
14 02/10/2019 18:04:55 72.75, -99.48 87.27 02/10/2019 18:05:34 72.73, -99.48 87.25 1.97 39
15 02/10/2019 18:55:39 -72.75, 67.83 92.74 02/10/2019 18:56:16 -72.77, 67.91 92.74 3.26 37
16 02/10/2019 19:46:24 72.70,-124.76 87.20 02/10/2019 19:46:56 72.71,-124.86 87.21 3.53 32
17 02/10/2019 20:37:09 -72.75, 42.45 92.76 02/10/2019 20:37:38 -72.75, 42.54 92.78 2.82 29
18 02/10/2019 21:27:54 72.71,-150.14 87.18 02/10/2019 21:28:18 72.70,-150.23 87.17 3.32 24
19 02/10/2019 22:18:38 -72.71, 17.18 92.84 02/10/2019 22:19:00 -72.73, 17.16 92.82 2.88 22
20 02/10/2019 23:09:24 72.71,-175.52 87.16 02/10/2019 23:09:39 72.73,-175.51 87.17 2.34 15
21 02/11/2019 00:00:08 -72.71, -8.20 92.86 02/11/2019 00:00:22 -72.71, -8.22 92.86 0.68 14
22 02/11/2019 00:50:54 72.71, 159.10 87.14 02/11/2019 00:51:01 72.71, 159.12 87.14 0.53 7
23 02/11/2019 01:41:38 -72.71, -33.58 92.88 02/11/2019 01:41:44 -72.69, -33.59 92.90 1.89 6
24 02/11/2019 02:32:24 72.71, 133.72 87.12 02/11/2019 02:32:23 72.69, 133.74 87.10 2.47 1
25 02/11/2019 03:23:08 -72.71, -58.96 92.90 02/11/2019 03:23:05 -72.73, -58.87 92.89 3.50 3
26 02/11/2019 04:13:53 72.67, 108.44 87.04 02/11/2019 04:13:45 72.67, 108.36 87.06 2.88 8
27 02/11/2019 05:04:38 -72.72, -84.34 92.92 02/11/2019 05:04:27 -72.71, -84.24 92.93 3.40 11
28 02/11/2019 05:55:23 72.67, 83.06 87.02 02/11/2019 05:55:07 72.66, 82.98 87.02 2.98 16
29 02/11/2019 06:46:07 -72.67,-109.62 92.99 02/11/2019 06:45:49 -72.69,-109.62 92.97 2.40 18
30 02/11/2019 07:36:53 72.67, 57.68 87.00 02/11/2019 07:36:28 72.69, 57.71 87.02 2.12 25
31 02/11/2019 08:27:37 -72.67,-135.00 93.01 02/11/2019 08:27:11 -72.67,-135.00 93.01 0.07 26
32 02/11/2019 09:18:23 72.67, 32.30 86.98 02/11/2019 09:17:50 72.67, 32.34 86.99 1.17 33
33 02/11/2019 10:09:07 -72.67,-160.38 93.03 02/11/2019 10:08:33 -72.65,-160.38 93.05 2.28 34
34 02/11/2019 10:59:53 72.68, 6.92 86.96 02/11/2019 10:59:12 72.65, 6.96 86.95 3.04 41
35 02/11/2019 11:50:36 -72.63, 174.34 93.11 02/11/2019 11:49:55 -72.64, 174.25 93.08 3.34 41
36 02/11/2019 12:41:22 72.63, -18.35 86.89 02/11/2019 12:40:34 72.63, -18.42 86.91 2.22 48
37 02/11/2019 13:32:06 -72.63, 148.96 93.13 02/11/2019 13:31:17 -72.62, 148.87 93.12 3.35 49
38 02/11/2019 14:22:52 72.63, -43.73 86.87 02/11/2019 14:21:56 72.62, -43.80 86.87 2.75 56
39 02/11/2019 15:13:36 -72.63, 123.58 93.15 02/11/2019 15:12:38 -72.65, 123.60 93.12 2.03 58
40 02/11/2019 16:04:22 72.64, -69.11 86.85 02/11/2019 16:03:17 72.65, -69.07 86.87 2.12 65
41 02/11/2019 16:55:06 -72.64, 98.20 93.17 02/11/2019 16:54:00 -72.63, 98.22 93.16 0.70 66
42 02/11/2019 17:45:52 72.64, -94.50 86.83 02/11/2019 17:44:39 72.63, -94.45 86.84 1.87 73
43 02/11/2019 18:36:36 -72.64, 72.82 93.19 02/11/2019 18:35:22 -72.61, 72.84 93.20 2.80 74
44 02/11/2019 19:27:17 72.39,-119.36 86.53 02/11/2019 19:26:05 72.41,-120.23 86.62 29.44 72
45 02/11/2019 20:18:00 -72.39, 47.95 93.49 02/11/2019 20:16:47 -72.39, 47.06 93.41 30.17 73
46 02/11/2019 21:08:40 72.08,-144.14 86.17 02/11/2019 21:07:32 72.08,-146.21 86.32 70.72 68
47 02/11/2019 21:59:24 -72.09, 23.17 93.84 02/11/2019 21:58:15 -72.07, 21.09 93.71 71.42 69




NCC Satellite Simultaneous Nadir Overpasses (SNOs) Prediction Service
